This is the latest recevied weather packets stored in our database for station/object KD1KE. If no packets are shown the sender has not sent any weather packets the latest 10 day(s).
| Time | Temp. | Humidity | Pressure | Rain* | Wind** | Luminosity | Snow |
|---|---|---|---|---|---|---|---|
| 1777992159 | 20° C | 55% | 1006.3 hPa | 0 mm | - | - | - |
| 1777991622 | 20° C | 55% | 1006.4 hPa | 0 mm | - | - | - |
| 1777991590 | 20° C | 55% | 1006.4 hPa | 0 mm | - | - | - |
| 1777990928 | 19.44° C | 58% | 1006.6 hPa | 0 mm | - | - | - |
| 1777990537 | 19.44° C | 57% | 1006.6 hPa | 0 mm | - | - | - |
| 1777989997 | 19.44° C | 57% | 1006.4 hPa | 0 mm | - | - | - |
| 1777989609 | 18.89° C | 58% | 1006.5 hPa | 0 mm | - | - | - |
| 1777989459 | 18.89° C | 59% | 1006.5 hPa | 0 mm | - | - | - |
| 1777988950 | 18.33° C | 59% | 1006.4 hPa | 0 mm | - | - | - |
| 1777988379 | 18.33° C | 60% | 1006.6 hPa | 0 mm | - | - | - |
| 1777988289 | 17.78° C | 61% | 1006.5 hPa | 0 mm | - | - | - |
| 1777987838 | 17.22° C | 62% | 1006.6 hPa | 0 mm | - | - | - |
| 1777987628 | 17.22° C | 62% | 1006.7 hPa | 0 mm | - | - | - |
| 1777987297 | 17.22° C | 62% | 1006.8 hPa | 0 mm | - | - | - |
| 1777986968 | 17.22° C | 62% | 1006.8 hPa | 0 mm | - | - | - |
| 1777986758 | 17.22° C | 62% | 1006.8 hPa | 0 mm | - | - | - |
| 1777986308 | 16.67° C | 63% | 1006.9 hPa | 0 mm | - | - | - |
| 1777986218 | 16.67° C | 64% | 1007 hPa | 0 mm | - | - | - |
| 1777985682 | 16.67° C | 64% | 1007 hPa | 0 mm | - | - | - |
| 1777985649 | 16.67° C | 64% | 1007 hPa | 0 mm | - | - | - |
| 1777985138 | 16.11° C | 64% | 1007 hPa | 0 mm | - | - | - |
| 1777984988 | 16.11° C | 64% | 1006.9 hPa | 0 mm | - | - | - |
| 1777984643 | 15.56° C | 65% | 1007 hPa | 0 mm | - | - | - |
| 1777984597 | 15.56° C | 65% | 1007 hPa | 0 mm | - | - | - |
| 1777984329 | 15.56° C | 65% | 1007.1 hPa | 0 mm | - | - | - |
* Rain latest hour (hover to see other rain measurements)
** Current wind speed in m/s (hover to see current wind gust speed)